{"data":{"norad_id":60488,"epoch":"2026-09-19T04:48:52.969248Z","epoch_age_seconds":130381,"freshness":"FRESH","line1":"1 60488U 24149W   26262.20061307  .00033749  00000+0  64192-3 0  9993","line2":"2 60488  97.3744 349.1014 0001352 278.0648  82.0449 15.48169474116903","mean_motion":15.48169474,"eccentricity":0.0001352,"inclination_deg":97.3744,"raan_deg":349.1014,"arg_perigee_deg":278.0648,"mean_anomaly_deg":82.0449,"bstar":0.00064192,"rev_number":11690,"period_min":93.013072805232,"perigee_km":421.16170229186,"apogee_km":423.00048126388,"semimajor_km":6800.2180917779,"source":"CELESTRAK","updated_at":"2026-09-20T09:00:34.712319Z"}}